User: anonymous   Login
Location: Unspecified
(0.0000°N, 0.0000°E)
Time: 15:19:27
(UTC+00:00)
Language:

Kosmos-2266 - Orbit

View from above orbital plane
View from above orbital plane
View from above satellite
View from above satellite

Ground track
Ground track

The orbit data is extracted from the following two-line orbital elements,

1 22888U 93070A   18231.53620032  .00000029  00000-0  14576-4 0  9991
2 22888  82.9501  36.4680 0046938 242.8659 148.0414 13.74918600241411
Epoch (UTC): 19 August 2018 12:52:07
Eccentricity: 0.0046938
inclination: 82.9501°
perigee height: 947 km
apogee height: 1016 km
right ascension of ascending node: 36.4680°
argument of perigee: 242.8659°
revolutions per day: 13.74918600
mean anomaly at epoch: 148.0414°
orbit number at epoch: 24141

The dashed part of the orbit path shows where the satellite is in the earth's shadow,  

DLR